Date String (YYYY-MM-DD hh:mm:ss) UTC,Instrument flags,Ambient pressure (hPa),Sample flow (lpm),Bypass flow (lpm),Sample temperature (°C),Ambient temperature (°C),ASC tube jacket temperature (°C),LED temperature (°C),Box temperature (°C),Sample RH (%),Span deviation,Mass concentration (μg/m³),Mass concentration (μg/m³),Mass concentration (μg/m³)
DateTimeUTC,F1_M11,P_M11,Q1_M11,Q2_M11,T1_M11,T2_M11,T3_M11,T4_M11,T5_M11,U1_M11,ZSPAN_M11,X0_M11,X2_M11,X1_M11
2022-11-26 18:00:00,,0821.1,5.01,0.00,25.4,24.5,00.0,34.1,27.3,12.0,0000.0,0003.34,0001.17,0000.79
2022-11-26 18:01:00,,0821.1,5.01,0.00,25.4,24.5,00.0,34.2,27.3,12.1,0000.0,0003.51,0001.22,0000.81
2022-11-26 18:02:00,,0821.1,4.98,0.00,25.4,24.5,00.0,34.2,27.3,11.9,0000.0,0002.72,0001.27,0000.82
2022-11-26 18:03:00,,0821.1,5.01,0.00,25.4,24.5,00.0,34.2,27.3,11.4,0000.0,0002.66,0001.26,0000.81
2022-11-26 18:04:00,,0821.1,5.00,0.00,25.5,24.5,00.0,34.2,27.3,11.7,0000.0,0003.33,0001.26,0000.84
2022-11-26 18:05:00,,0821.1,4.98,0.00,25.5,24.5,00.0,34.2,27.4,11.8,0000.0,0003.70,0001.37,0000.87
2022-11-26 18:06:00,,0821.0,5.01,0.00,25.5,24.6,00.0,34.3,27.4,11.6,0000.0,0003.91,0001.47,0000.89
2022-11-26 18:07:00,,0821.0,5.00,0.00,25.5,24.6,00.0,34.3,27.4,11.7,0000.0,0003.95,0001.55,0000.91
2022-11-26 18:08:00,,0821.0,5.01,0.00,25.5,24.6,00.0,34.3,27.4,11.7,0000.0,0004.08,0001.60,0000.92
2022-11-26 18:09:00,,0821.0,4.99,0.00,25.6,24.6,00.0,34.3,27.5,11.5,0000.0,0004.15,0001.61,0000.92
2022-11-26 18:10:00,,0821.0,5.00,0.00,25.6,24.7,00.0,34.3,27.5,11.4,0000.0,0004.13,0001.60,0000.92
2022-11-26 18:11:00,,0821.0,5.01,0.00,25.6,24.7,00.0,34.4,27.5,11.6,0000.0,0004.05,0001.58,0000.93
2022-11-26 18:12:00,,0821.0,4.99,0.00,25.6,24.7,00.0,34.4,27.5,11.5,0000.0,0004.05,0001.58,0000.94
2022-11-26 18:13:00,,0821.0,5.00,0.00,25.6,24.7,00.0,34.4,27.6,11.5,0000.0,0005.01,0001.61,0000.98
2022-11-26 18:14:00,,0820.9,5.01,0.00,25.7,24.8,00.0,34.4,27.6,11.6,0000.0,0006.85,0001.71,0001.04
2022-11-26 18:15:00,,0820.9,4.99,0.00,25.7,24.8,00.0,34.4,27.6,11.6,0000.0,0006.78,0001.83,0001.10
2022-11-26 18:16:00,,0820.9,4.99,0.00,25.7,24.8,00.0,34.5,27.6,11.5,0000.0,0006.96,0001.82,0001.14
2022-11-26 18:17:00,,0820.9,5.02,0.00,25.7,24.8,00.0,34.5,27.7,11.8,0000.0,0007.23,0001.84,0001.20
2022-11-26 18:18:00,,0820.9,4.99,0.00,25.8,24.8,00.0,34.5,27.7,12.2,0000.0,0007.51,0001.87,0001.26
2022-11-26 18:19:00,,0820.9,5.00,0.00,25.8,24.9,00.0,34.5,27.6,11.8,0000.0,0007.99,0001.93,0001.31
2022-11-26 18:20:00,,0820.9,5.02,0.00,25.8,24.9,00.0,34.6,27.7,12.2,0000.0,0008.18,0002.05,0001.39
2022-11-26 18:21:00,,0820.8,4.98,0.00,25.8,24.9,00.0,34.6,27.7,11.9,0000.0,0008.53,0002.17,0001.45
2022-11-26 18:22:00,,0820.8,5.01,0.00,25.8,24.9,00.0,34.6,27.7,12.1,0000.0,0008.87,0002.38,0001.55
2022-11-26 18:23:00,,0820.8,5.00,0.00,25.8,24.9,00.0,34.6,27.7,11.8,0000.0,0009.12,0002.52,0001.62
2022-11-26 18:24:00,,0820.8,4.98,0.00,25.9,24.9,00.0,34.6,27.8,11.9,0000.0,0008.63,0002.62,0001.69
2022-11-26 18:25:00,,0820.8,5.01,0.00,25.9,25.0,00.0,34.6,27.8,11.8,0000.0,0007.74,0002.66,0001.76
2022-11-26 18:26:00,,0820.7,5.00,0.00,25.9,25.0,00.0,34.7,27.8,12.0,0000.0,0007.71,0002.75,0001.83
2022-11-26 18:27:00,,0820.7,5.00,0.00,25.9,25.0,00.0,34.7,27.9,11.4,0000.0,0007.78,0002.81,0001.88
2022-11-26 18:28:00,,0820.7,5.01,0.00,26.0,25.0,00.0,34.7,27.9,11.5,0000.0,0007.50,0002.78,0001.88
2022-11-26 18:29:00,,0820.6,4.99,0.00,26.0,25.0,00.0,34.7,27.9,11.4,0000.0,0007.12,0002.72,0001.87
2022-11-26 18:30:00,,0820.6,5.01,0.00,26.0,25.1,00.0,34.8,27.9,11.5,0000.0,0006.29,0002.71,0001.91
2022-11-26 18:31:00,,0820.6,5.00,0.00,26.0,25.1,00.0,34.8,27.9,11.5,0000.0,0006.03,0002.71,0001.97
2022-11-26 18:32:00,,0820.6,4.99,0.00,26.0,25.1,00.0,34.8,27.9,11.5,0000.0,0005.59,0002.71,0002.02
2022-11-26 18:33:00,,0820.6,5.02,0.00,26.1,25.1,00.0,34.8,28.0,11.7,0000.0,0005.15,0002.60,0002.04
2022-11-26 18:34:00,,0820.6,4.99,0.00,26.1,25.1,00.0,34.8,28.0,11.5,0000.0,0004.91,0002.64,0002.09
2022-11-26 18:35:00,,0820.6,5.00,0.00,26.1,25.1,00.0,34.9,28.0,11.0,0000.0,0004.95,0002.61,0002.08
2022-11-26 18:36:00,,0820.6,5.01,0.00,26.1,25.2,00.0,34.9,28.0,11.2,0000.0,0005.02,0002.62,0002.06
2022-11-26 18:37:00,,0820.7,4.98,0.00,26.1,25.2,00.0,34.9,28.0,11.3,0000.0,0004.92,0002.54,0002.04
2022-11-26 18:38:00,,0820.6,5.02,0.00,26.2,25.2,00.0,34.9,28.1,11.5,0000.0,0004.19,0002.50,0002.05
2022-11-26 18:39:00,,0820.6,5.00,0.00,26.2,25.2,00.0,34.9,28.1,10.8,0000.0,0004.12,0002.52,0002.07
2022-11-26 18:40:00,,0820.6,4.99,0.00,26.2,25.2,00.0,34.9,28.1,10.6,0000.0,0004.07,0002.52,0002.07
2022-11-26 18:41:00,,0820.6,5.02,0.00,26.2,25.2,00.0,35.0,28.1,10.6,0000.0,0005.49,0002.47,0002.04
2022-11-26 18:42:00,,0820.7,4.99,0.00,26.2,25.2,00.0,35.0,28.1,10.6,0000.0,0005.58,0002.38,0001.97
2022-11-26 18:43:00,,0820.6,5.01,0.00,26.2,25.2,00.0,35.0,28.1,11.0,0000.0,0005.83,0002.33,0001.90
2022-11-26 18:44:00,,0820.6,5.00,0.00,26.2,25.3,00.0,35.0,28.1,11.3,0000.0,0005.90,0002.34,0001.88
2022-11-26 18:45:00,,0820.6,4.99,0.00,26.3,25.3,00.0,35.0,28.1,11.4,0000.0,0005.92,0002.35,0001.88
2022-11-26 18:46:00,,0820.6,5.02,0.00,26.3,25.3,00.0,35.0,28.2,11.7,0000.0,0005.77,0002.34,0001.93
2022-11-26 18:47:00,,0820.6,5.00,0.00,26.3,25.3,00.0,35.1,28.2,11.3,0000.0,0005.71,0002.35,0001.95
2022-11-26 18:48:00,,0820.6,4.99,0.00,26.3,25.3,00.0,35.1,28.2,10.9,0000.0,0005.56,0002.33,0001.94
2022-11-26 18:49:00,,0820.6,5.00,0.00,26.3,25.3,00.0,35.1,28.2,10.5,0000.0,0005.53,0002.30,0001.91
2022-11-26 18:50:00,,0820.6,5.00,0.00,26.3,25.3,00.0,35.1,28.2,10.9,0000.0,0005.52,0002.31,0001.90
2022-11-26 18:51:00,,0820.5,5.00,0.00,26.4,25.4,00.0,35.1,28.2,11.0,0000.0,0005.83,0002.43,0001.92
2022-11-26 18:52:00,,0820.6,4.99,0.00,26.4,25.4,00.0,35.1,28.3,10.7,0000.0,0004.97,0002.50,0001.95
2022-11-26 18:53:00,,0820.5,5.02,0.00,26.4,25.4,00.0,35.2,28.3,10.4,0000.0,0005.05,0002.48,0001.91
2022-11-26 18:54:00,,0820.5,4.98,0.00,26.4,25.4,00.0,35.2,28.3,10.4,0000.0,0004.96,0002.44,0001.89
2022-11-26 18:55:00,,0820.5,5.00,0.00,26.4,25.4,00.0,35.2,28.3,10.2,0000.0,0004.69,0002.32,0001.80
2022-11-26 18:56:00,,0820.5,5.01,0.00,26.4,25.4,00.0,35.2,28.3,10.4,0000.0,0004.48,0002.16,0001.69
2022-11-26 18:57:00,,0820.5,4.99,0.00,26.4,25.4,00.0,35.2,28.3,10.5,0000.0,0004.33,0002.04,0001.57
2022-11-26 18:58:00,,0820.5,5.01,0.00,26.5,25.4,00.0,35.2,28.3,10.7,0000.0,0004.31,0002.00,0001.50
2022-11-26 18:59:00,,0820.5,5.00,0.00,26.5,25.5,00.0,35.3,28.4,10.3,0000.0,0004.27,0001.93,0001.43
